| time (UTC) | temp C | wind direction | speed KPH | gust KPH | rain 1hr cm | rain 24hr cm | rain mn cm | humidity % | barometer mb |
| 20260507172222 | 28 | 343 | 1.6 | 3.2 | 0.00 | 0.00 | 0.00 | 22 | 1015.5 |
| 20260507171722 | 27 | 85 | 1.6 | 4.8 | 0.00 | 0.00 | 0.00 | 20 | 1015.6 |
| 20260507171220 | 27 | 36 | 1.6 | 3.2 | 0.00 | 0.00 | 0.00 | 21 | 1015.4 |
| 20260507170716 | 27 | 117 | 3.2 | 6.4 | 0.00 | 0.00 | 0.00 | 21 | 1015.4 |
| 20260507170214 | 27 | 79 | 1.6 | 4.8 | 0.00 | 0.00 | 0.00 | 21 | 1015.6 |
| 20260507165709 | 27 | 13 | 3.2 | 3.2 | 0.00 | 0.00 | 0.00 | 22 | 1015.6 |
| 20260507165200 | 27 | 88 | 0.0 | 1.6 | 0.00 | 0.00 | 0.00 | 24 | 1015.8 |
| 20260507164656 | 26 | 279 | 1.6 | 3.2 | 0.00 | 0.00 | 0.00 | 20 | 1015.6 |
| 20260507164154 | 26 | 26 | 3.2 | 4.8 | 0.00 | 0.00 | 0.00 | 23 | 1015.8 |
| 20260507163650 | 26 | 50 | 0.0 | 3.2 | 0.00 | 0.00 | 0.00 | 23 | 1015.7 |
| 20260507163148 | 25 | 90 | 0.0 | 3.2 | 0.00 | 0.00 | 0.00 | 25 | 1015.7 |
| 20260507162643 | 25 | 337 | 3.2 | 4.8 | 0.00 | 0.00 | 0.00 | 26 | 1015.8 |
| 20260507162140 | 25 | 327 | 3.2 | 4.8 | 0.00 | 0.00 | 0.00 | 26 | 1015.8 |
| 20260507161637 | 25 | 6 | 1.6 | 3.2 | 0.00 | 0.00 | 0.00 | 26 | 1015.9 |
| 20260507161133 | 25 | 7 | 3.2 | 4.8 | 0.00 | 0.00 | 0.00 | 27 | 1015.9 |
| 20260507160629 | 25 | 16 | 1.6 | 3.2 | 0.00 | 0.00 | 0.00 | 26 | 1015.9 |
| 20260507160126 | 24 | 352 | 3.2 | 3.2 | 0.00 | 0.00 | 0.00 | 28 | 1015.9 |
| 20260507155621 | 24 | 72 | 0.0 | 3.2 | 0.00 | 0.00 | 0.00 | 27 | 1015.9 |
| 20260507155118 | 23 | 60 | 0.0 | 1.6 | 0.00 | 0.00 | 0.00 | 27 | 1016.0 |
| 20260507154615 | 23 | 6 | 3.2 | 4.8 | 0.00 | 0.00 | 0.00 | 28 | 1015.9 |
| 20260507154113 | 23 | 275 | 0.0 | 6.4 | 0.00 | 0.00 | 0.00 | 28 | 1016.1 |
| 20260507153609 | 23 | 339 | 3.2 | 4.8 | 0.00 | 0.00 | 0.00 | 28 | 1016.0 |
| 20260507153105 | 23 | 346 | 1.6 | 4.8 | 0.00 | 0.00 | 0.00 | 30 | 1015.9 |
| 20260507152602 | 23 | 298 | 3.2 | 4.8 | 0.00 | 0.00 | 0.00 | 30 | 1016.0 |
| 20260507152058 | 22 | 305 | 6.4 | 6.4 | 0.00 | 0.00 | 0.00 | 29 | 1016.1 |
| 20260507151554 | 22 | 338 | 1.6 | 3.2 | 0.00 | 0.00 | 0.00 | 30 | 1016.0 |
| 20260507151051 | 22 | 4 | 3.2 | 4.8 | 0.00 | 0.00 | 0.00 | 31 | 1016.1 |
| 20260507150549 | 22 | 343 | 1.6 | 3.2 | 0.00 | 0.00 | 0.00 | 31 | 1016.0 |
| 20260507150045 | 21 | 342 | 3.2 | 3.2 | 0.00 | 0.00 | 0.00 | 31 | 1016.1 |
| 20260507145540 | 21 | 20 | 3.2 | 4.8 | 0.00 | 0.00 | 0.00 | 32 | 1016.2 |
| 20260507145038 | 21 | 320 | 1.6 | 4.8 | 0.00 | 0.00 | 0.00 | 32 | 1016.0 |
| 20260507144534 | 20 | 339 | 3.2 | 6.4 | 0.00 | 0.00 | 0.00 | 32 | 1016.0 |
| 20260507144032 | 20 | 332 | 1.6 | 4.8 | 0.00 | 0.00 | 0.00 | 33 | 1016.0 |
| 20260507143529 | 20 | 326 | 3.2 | 3.2 | 0.00 | 0.00 | 0.00 | 33 | 1016.1 |
| 20260507143026 | 19 | 320 | 1.6 | 3.2 | 0.00 | 0.00 | 0.00 | 34 | 1016.2 |
| 20260507142522 | 19 | 303 | 3.2 | 4.8 | 0.00 | 0.00 | 0.00 | 35 | 1016.0 |
| 20260507142013 | 19 | 295 | 3.2 | 4.8 | 0.00 | 0.00 | 0.00 | 34 | 1016.1 |
| 20260507141509 | 18 | 277 | 1.6 | 4.8 | 0.00 | 0.00 | 0.00 | 33 | 1016.1 |
| 20260507141007 | 18 | 8 | 0.0 | 3.2 | 0.00 | 0.00 | 0.00 | 35 | 1016.1 |
| 20260507140502 | 18 | 308 | 1.6 | 3.2 | 0.00 | 0.00 | 0.00 | 35 | 1016.1 |
| 20260507140000 | 18 | 303 | 3.2 | 3.2 | 0.00 | 0.00 | 0.00 | 36 | 1016.0 |
| 20260507135457 | 18 | 308 | 1.6 | 4.8 | 0.00 | 0.00 | 0.00 | 35 | 1015.8 |
| 20260507134954 | 18 | 308 | 3.2 | 3.2 | 0.00 | 0.00 | 0.00 | 34 | 1016.0 |
| 20260507134450 | 17 | 336 | 3.2 | 3.2 | 0.00 | 0.00 | 0.00 | 35 | 1015.9 |
| 20260507133946 | 17 | 283 | 3.2 | 3.2 | 0.00 | 0.00 | 0.00 | 36 | 1015.7 |
| 20260507133442 | 16 | 277 | 1.6 | 3.2 | 0.00 | 0.00 | 0.00 | 37 | 1015.8 |
| 20260507132935 | 16 | 278 | 1.6 | 3.2 | 0.00 | 0.00 | 0.00 | 38 | 1015.7 |
| 20260507132431 | 16 | 270 | 0.0 | 1.6 | 0.00 | 0.00 | 0.00 | 39 | 1015.6 |
| 20260507131927 | 15 | 263 | 0.0 | 0.0 | 0.00 | 0.00 | 0.00 | 40 | 1015.5 |
| 20260507131425 | 15 | 184 | 0.0 | 3.2 | 0.00 | 0.00 | 0.00 | 40 | 1015.4 |
| 20260507130921 | 15 | 326 | 1.6 | 3.2 | 0.00 | 0.00 | 0.00 | 39 | 1015.3 |
| 20260507130418 | 15 | 336 | 1.6 | 1.6 | 0.00 | 0.00 | 0.00 | 40 | 1015.4 |
| 20260507125917 | 15 | 280 | 1.6 | 3.2 | 0.00 | 0.00 | 0.00 | 40 | 1015.4 |
| 20260507125415 | 15 | 336 | 0.0 | 1.6 | 0.00 | 0.00 | 0.00 | 43 | 1015.4 |
| 20260507124912 | 15 | 326 | 0.0 | 1.6 | 0.00 | 0.00 | 0.00 | 42 | 1015.4 |
| 20260507124408 | 15 | 358 | 0.0 | 0.0 | 0.00 | 0.00 | 0.00 | 42 | 1015.5 |
| 20260507123906 | 15 | 303 | 0.0 | 0.0 | 0.00 | 0.00 | 0.00 | 42 | 1015.5 |
| 20260507123403 | 15 | 268 | 1.6 | 3.2 | 0.00 | 0.00 | 0.00 | 41 | 1015.4 |
| 20260507122859 | 15 | 303 | 1.6 | 3.2 | 0.00 | 0.00 | 0.00 | 42 | 1015.4 |
| 20260507122355 | 16 | 327 | 0.0 | 3.2 | 0.00 | 0.00 | 0.00 | 41 | 1015.3 |
| 20260507121851 | 16 | 311 | 1.6 | 4.8 | 0.00 | 0.00 | 0.00 | 42 | 1015.4 |
| 20260507121346 | 15 | 329 | 1.6 | 1.6 | 0.00 | 0.00 | 0.00 | 41 | 1015.3 |
| 20260507120844 | 16 | 324 | 0.0 | 1.6 | 0.00 | 0.00 | 0.00 | 43 | 1014.9 |
| 20260507120340 | 16 | 124 | 0.0 | 0.0 | 0.00 | 0.00 | 0.00 | 42 | 1015.0 |
| 20260507115837 | 16 | 324 | 0.0 | 1.6 | 0.00 | 0.00 | 0.00 | 41 | 1014.9 |
| 20260507115332 | 16 | 319 | 0.0 | 1.6 | 0.00 | 0.00 | 0.00 | 42 | 1015.1 |
| 20260507114828 | 16 | 350 | 1.6 | 4.8 | 0.00 | 0.00 | 0.00 | 43 | 1015.3 |
| 20260507114325 | 16 | 270 | 1.6 | 1.6 | 0.00 | 0.00 | 0.00 | 42 | 1015.3 |
| 20260507113823 | 16 | 320 | 1.6 | 3.2 | 0.00 | 0.00 | 0.00 | 43 | 1015.1 |
| 20260507113319 | 17 | 314 | 1.6 | 3.2 | 0.00 | 0.00 | 0.00 | 41 | 1015.1 |
| 20260507112817 | 17 | 31 | 0.0 | 0.0 | 0.00 | 0.00 | 0.00 | 41 | 1015.3 |
| 20260507112314 | 17 | 16 | 0.0 | 1.6 | 0.00 | 0.00 | 0.00 | 39 | 1015.3 |
| 20260507111812 | 17 | 304 | 1.6 | 3.2 | 0.00 | 0.00 | 0.00 | 40 | 1015.1 |
| 20260507111308 | 17 | 318 | 1.6 | 1.6 | 0.00 | 0.00 | 0.00 | 43 | 1015.3 |
| 20260507110804 | 17 | 93 | 0.0 | 0.0 | 0.00 | 0.00 | 0.00 | 39 | 1015.1 |
| 20260507110300 | 17 | 107 | 0.0 | 0.0 | 0.00 | 0.00 | 0.00 | 39 | 1015.0 |
| 20260507105758 | 17 | 100 | 0.0 | 0.0 | 0.00 | 0.00 | 0.00 | 40 | 1015.3 |
| 20260507105254 | 17 | 59 | 0.0 | 0.0 | 0.00 | 0.00 | 0.00 | 39 | 1015.1 |
| 20260507104751 | 17 | 59 | 0.0 | 0.0 | 0.00 | 0.00 | 0.00 | 39 | 1015.4 |
| 20260507104247 | 17 | 58 | 0.0 | 0.0 | 0.00 | 0.00 | 0.00 | 40 | 1015.1 |
| 20260507103744 | 17 | 48 | 0.0 | 0.0 | 0.00 | 0.00 | 0.00 | 38 | 1015.4 |
| 20260507103240 | 17 | 45 | 0.0 | 0.0 | 0.00 | 0.00 | 0.00 | 37 | 1015.3 |
| 20260507102736 | 18 | 84 | 0.0 | 0.0 | 0.00 | 0.00 | 0.00 | 37 | 1015.1 |
| 20260507102233 | 18 | 102 | 0.0 | 0.0 | 0.00 | 0.00 | 0.00 | 36 | 1015.4 |
| 20260507101729 | 18 | 133 | 0.0 | 0.0 | 0.00 | 0.00 | 0.00 | 35 | 1015.5 |
| 20260507101225 | 18 | 123 | 0.0 | 0.0 | 0.00 | 0.00 | 0.00 | 34 | 1015.5 |
| 20260507100722 | 19 | 112 | 0.0 | 0.0 | 0.00 | 0.00 | 0.00 | 33 | 1015.6 |
| 20260507100220 | 20 | 141 | 0.0 | 1.6 | 0.00 | 0.00 | 0.00 | 32 | 1015.6 |
| 20260507095718 | 19 | 157 | 1.6 | 1.6 | 0.00 | 0.00 | 0.00 | 32 | 1015.6 |
| 20260507095214 | 19 | 153 | 0.0 | 1.6 | 0.00 | 0.00 | 0.00 | 33 | 1015.7 |
| 20260507094711 | 19 | 144 | 0.0 | 1.6 | 0.00 | 0.00 | 0.00 | 33 | 1015.8 |
| 20260507094208 | 19 | 147 | 0.0 | 1.6 | 0.00 | 0.00 | 0.00 | 33 | 1015.7 |
| 20260507093705 | 19 | 175 | 1.6 | 3.2 | 0.00 | 0.00 | 0.00 | 33 | 1015.6 |
| 20260507093204 | 19 | 170 | 1.6 | 1.6 | 0.00 | 0.00 | 0.00 | 34 | 1015.7 |
| 20260507092700 | 19 | 178 | 0.0 | 1.6 | 0.00 | 0.00 | 0.00 | 33 | 1015.9 |
| 20260507092157 | 19 | 155 | 0.0 | 0.0 | 0.00 | 0.00 | 0.00 | 33 | 1015.9 |
| 20260507091653 | 19 | 188 | 0.0 | 0.0 | 0.00 | 0.00 | 0.00 | 33 | 1016.1 |
| 20260507091150 | 19 | 135 | 0.0 | 1.6 | 0.00 | 0.00 | 0.00 | 33 | 1016.0 |
| 20260507090645 | 19 | 166 | 0.0 | 0.0 | 0.00 | 0.00 | 0.00 | 34 | 1016.0 |
| 20260507090143 | 19 | 192 | 0.0 | 0.0 | 0.00 | 0.00 | 0.00 | 33 | 1016.1 |
| 20260507085640 | 19 | 179 | 0.0 | 1.6 | 0.00 | 0.00 | 0.00 | 33 | 1015.9 |
| 20260507085136 | 20 | 152 | 0.0 | 1.6 | 0.00 | 0.00 | 0.00 | 33 | 1016.1 |
| 20260507084633 | 20 | 196 | 0.0 | 1.6 | 0.00 | 0.00 | 0.00 | 33 | 1016.2 |
| 20260507084130 | 20 | 194 | 1.6 | 1.6 | 0.00 | 0.00 | 0.00 | 33 | 1016.0 |
| 20260507083626 | 20 | 191 | 1.6 | 3.2 | 0.00 | 0.00 | 0.00 | 33 | 1016.2 |
| 20260507083123 | 20 | 189 | 1.6 | 1.6 | 0.00 | 0.00 | 0.00 | 33 | 1016.2 |
| 20260507082619 | 20 | 178 | 0.0 | 3.2 | 0.00 | 0.00 | 0.00 | 33 | 1016.3 |
| 20260507082116 | 19 | 208 | 1.6 | 3.2 | 0.00 | 0.00 | 0.00 | 35 | 1016.2 |
| 20260507081612 | 19 | 162 | 3.2 | 3.2 | 0.00 | 0.00 | 0.00 | 35 | 1016.3 |
| 20260507081109 | 18 | 172 | 0.0 | 1.6 | 0.00 | 0.00 | 0.00 | 41 | 1016.3 |
| 20260507080606 | 18 | 177 | 1.6 | 1.6 | 0.00 | 0.00 | 0.00 | 39 | 1016.4 |
| 20260507075556 | 18 | 123 | 0.0 | 0.0 | 0.00 | 0.00 | 0.00 | 47 | 1016.4 |
| 20260507075053 | 18 | 166 | 0.0 | 0.0 | 0.00 | 0.00 | 0.00 | 47 | 1016.4 |
| 20260507074550 | 18 | 124 | 0.0 | 0.0 | 0.00 | 0.00 | 0.00 | 47 | 1016.4 |
| 20260507074049 | 18 | 115 | 0.0 | 0.0 | 0.00 | 0.00 | 0.00 | 47 | 1016.4 |
| 20260507073544 | 18 | 133 | 0.0 | 0.0 | 0.00 | 0.00 | 0.00 | 47 | 1016.4 |
| 20260507073041 | 18 | 3 | 0.0 | 0.0 | 0.00 | 0.00 | 0.00 | 47 | 1016.4 |
| 20260507072539 | 18 | 6 | 0.0 | 0.0 | 0.00 | 0.00 | 0.00 | 48 | 1016.3 |
| 20260507072036 | 18 | 332 | 0.0 | 0.0 | 0.00 | 0.00 | 0.00 | 47 | 1016.3 |
| 20260507071533 | 19 | 340 | 0.0 | 0.0 | 0.00 | 0.00 | 0.00 | 45 | 1016.3 |
| 20260507071030 | 19 | 345 | 0.0 | 0.0 | 0.00 | 0.00 | 0.00 | 43 | 1016.3 |
| 20260507070527 | 19 | 29 | 0.0 | 0.0 | 0.00 | 0.00 | 0.00 | 40 | 1016.2 |
| 20260507070024 | 19 | 26 | 0.0 | 0.0 | 0.00 | 0.00 | 0.00 | 40 | 1016.4 |
| 20260507065520 | 19 | 58 | 0.0 | 0.0 | 0.00 | 0.00 | 0.00 | 40 | 1016.2 |
| 20260507065017 | 19 | 93 | 0.0 | 0.0 | 0.00 | 0.00 | 0.00 | 40 | 1016.4 |
| 20260507064515 | 19 | 93 | 0.0 | 0.0 | 0.00 | 0.00 | 0.00 | 39 | 1016.4 |
| 20260507064014 | 20 | 111 | 0.0 | 0.0 | 0.00 | 0.00 | 0.00 | 38 | 1016.4 |
| 20260507063510 | 20 | 92 | 0.0 | 0.0 | 0.00 | 0.00 | 0.00 | 38 | 1016.3 |
| 20260507063008 | 20 | 297 | 0.0 | 1.6 | 0.00 | 0.00 | 0.00 | 37 | 1016.2 |
| 20260507062504 | 20 | 296 | 0.0 | 1.6 | 0.00 | 0.00 | 0.00 | 36 | 1016.3 |
| 20260507062001 | 20 | 17 | 0.0 | 0.0 | 0.00 | 0.00 | 0.00 | 35 | 1016.3 |
| 20260507061459 | 20 | 344 | 0.0 | 0.0 | 0.00 | 0.00 | 0.00 | 34 | 1016.4 |
| 20260507060957 | 21 | 101 | 0.0 | 0.0 | 0.00 | 0.00 | 0.00 | 33 | 1016.2 |
| 20260507060454 | 21 | 173 | 0.0 | 0.0 | 0.00 | 0.00 | 0.00 | 32 | 1016.2 |
| 20260507055950 | 21 | 187 | 0.0 | 0.0 | 0.00 | 0.00 | 0.00 | 33 | 1016.4 |
| 20260507055446 | 21 | 163 | 0.0 | 0.0 | 0.00 | 0.00 | 0.00 | 33 | 1016.3 |
| 20260507054943 | 21 | 125 | 0.0 | 0.0 | 0.00 | 0.00 | 0.00 | 35 | 1016.3 |
| 20260507054439 | 21 | 133 | 0.0 | 0.0 | 0.00 | 0.00 | 0.00 | 33 | 1016.2 |
| 20260507053936 | 21 | 135 | 0.0 | 0.0 | 0.00 | 0.00 | 0.00 | 33 | 1016.2 |
| 20260507053434 | 21 | 130 | 0.0 | 0.0 | 0.00 | 0.00 | 0.00 | 32 | 1016.3 |
| 20260507052932 | 21 | 87 | 0.0 | 0.0 | 0.00 | 0.00 | 0.00 | 32 | 1016.2 |
| 20260507052429 | 21 | 107 | 0.0 | 0.0 | 0.00 | 0.00 | 0.00 | 32 | 1016.2 |
| 20260507051926 | 21 | 183 | 0.0 | 0.0 | 0.00 | 0.00 | 0.00 | 33 | 1016.2 |
| 20260507051424 | 21 | 112 | 0.0 | 0.0 | 0.00 | 0.00 | 0.00 | 32 | 1016.1 |
| 20260507050921 | 21 | 110 | 0.0 | 0.0 | 0.00 | 0.00 | 0.00 | 31 | 1016.2 |
| 20260507050417 | 21 | 110 | 0.0 | 0.0 | 0.00 | 0.00 | 0.00 | 30 | 1016.2 |
| 20260507045914 | 21 | 109 | 0.0 | 0.0 | 0.00 | 0.00 | 0.00 | 30 | 1016.2 |
| 20260507045411 | 22 | 109 | 0.0 | 0.0 | 0.00 | 0.00 | 0.00 | 30 | 1016.0 |
| 20260507044908 | 22 | 116 | 0.0 | 0.0 | 0.00 | 0.00 | 0.00 | 29 | 1016.0 |
| 20260507044405 | 22 | 123 | 0.0 | 0.0 | 0.00 | 0.00 | 0.00 | 29 | 1016.0 |
| 20260507043900 | 22 | 126 | 0.0 | 0.0 | 0.00 | 0.00 | 0.00 | 29 | 1015.9 |
| 20260507043352 | 22 | 107 | 0.0 | 0.0 | 0.00 | 0.00 | 0.00 | 29 | 1016.0 |
| 20260507042848 | 22 | 76 | 0.0 | 0.0 | 0.00 | 0.00 | 0.00 | 27 | 1015.9 |
| 20260507042344 | 22 | 77 | 0.0 | 0.0 | 0.00 | 0.00 | 0.00 | 28 | 1015.9 |
| 20260507041841 | 23 | 77 | 0.0 | 0.0 | 0.00 | 0.00 | 0.00 | 27 | 1015.8 |
| 20260507041338 | 23 | 71 | 0.0 | 0.0 | 0.00 | 0.00 | 0.00 | 27 | 1015.6 |
| 20260507040835 | 23 | 68 | 0.0 | 0.0 | 0.00 | 0.00 | 0.00 | 26 | 1015.7 |
| 20260507040330 | 23 | 76 | 0.0 | 0.0 | 0.00 | 0.00 | 0.00 | 27 | 1015.7 |
| 20260507035826 | 23 | 76 | 0.0 | 0.0 | 0.00 | 0.00 | 0.00 | 26 | 1015.6 |
| 20260507035322 | 23 | 76 | 0.0 | 0.0 | 0.00 | 0.00 | 0.00 | 26 | 1015.5 |
| 20260507034820 | 23 | 83 | 0.0 | 0.0 | 0.00 | 0.00 | 0.00 | 26 | 1015.5 |
| 20260507034316 | 24 | 84 | 0.0 | 0.0 | 0.00 | 0.00 | 0.00 | 25 | 1015.4 |
| 20260507033814 | 23 | 78 | 0.0 | 0.0 | 0.00 | 0.00 | 0.00 | 26 | 1015.3 |
| 20260507033312 | 23 | 82 | 0.0 | 0.0 | 0.00 | 0.00 | 0.00 | 26 | 1015.3 |
| 20260507032809 | 23 | 90 | 0.0 | 0.0 | 0.00 | 0.00 | 0.00 | 27 | 1015.1 |
| 20260507032306 | 24 | 90 | 0.0 | 0.0 | 0.00 | 0.00 | 0.00 | 26 | 1015.1 |
| 20260507031801 | 25 | 80 | 0.0 | 0.0 | 0.00 | 0.00 | 0.00 | 25 | 1014.9 |
| 20260507031258 | 25 | 95 | 0.0 | 0.0 | 0.00 | 0.00 | 0.00 | 25 | 1015.0 |
| 20260507030755 | 25 | 84 | 0.0 | 0.0 | 0.00 | 0.00 | 0.00 | 25 | 1014.9 |
| 20260507030252 | 25 | 79 | 0.0 | 0.0 | 0.00 | 0.00 | 0.00 | 24 | 1015.0 |
| 20260507025749 | 25 | 70 | 0.0 | 0.0 | 0.00 | 0.00 | 0.00 | 23 | 1014.9 |
| 20260507025246 | 25 | 79 | 0.0 | 0.0 | 0.00 | 0.00 | 0.00 | 24 | 1015.0 |
| 20260507024745 | 25 | 67 | 0.0 | 0.0 | 0.00 | 0.00 | 0.00 | 23 | 1014.9 |
| 20260507024241 | 25 | 76 | 1.6 | 1.6 | 0.00 | 0.00 | 0.00 | 24 | 1014.7 |
| 20260507023737 | 26 | 75 | 0.0 | 1.6 | 0.00 | 0.00 | 0.00 | 25 | 1014.7 |
| 20260507023234 | 26 | 70 | 0.0 | 1.6 | 0.00 | 0.00 | 0.00 | 23 | 1014.6 |
| 20260507022731 | 26 | 49 | 0.0 | 1.6 | 0.00 | 0.00 | 0.00 | 23 | 1014.5 |
| 20260507022227 | 26 | 36 | 0.0 | 1.6 | 0.00 | 0.00 | 0.00 | 23 | 1014.4 |
| 20260507021724 | 26 | 66 | 0.0 | 0.0 | 0.00 | 0.00 | 0.00 | 24 | 1014.5 |
| 20260507021219 | 26 | 53 | 0.0 | 1.6 | 0.00 | 0.00 | 0.00 | 23 | 1014.4 |
| 20260507020718 | 26 | 40 | 0.0 | 1.6 | 0.00 | 0.00 | 0.00 | 25 | 1014.4 |
| 20260507020214 | 26 | 45 | 0.0 | 1.6 | 0.00 | 0.00 | 0.00 | 23 | 1014.3 |
| 20260507015712 | 26 | 100 | 1.6 | 3.2 | 0.00 | 0.00 | 0.00 | 23 | 1014.3 |
| 20260507015209 | 26 | 63 | 0.0 | 3.2 | 0.00 | 0.00 | 0.00 | 22 | 1014.4 |
| 20260507014705 | 26 | 50 | 1.6 | 3.2 | 0.00 | 0.00 | 0.00 | 23 | 1014.3 |
| 20260507014201 | 26 | 60 | 0.0 | 3.2 | 0.00 | 0.00 | 0.00 | 22 | 1014.2 |
| 20260507013658 | 26 | 94 | 1.6 | 3.2 | 0.00 | 0.00 | 0.00 | 22 | 1014.4 |
| 20260507013155 | 27 | 134 | 4.8 | 9.7 | 0.00 | 0.00 | 0.00 | 23 | 1014.4 |
| 20260507012653 | 27 | 54 | 0.0 | 1.6 | 0.00 | 0.00 | 0.00 | 23 | 1014.3 |
| 20260507012148 | 27 | 65 | 1.6 | 3.2 | 0.00 | 0.00 | 0.00 | 22 | 1014.3 |
| 20260507011647 | 27 | 72 | 0.0 | 1.6 | 0.00 | 0.00 | 0.00 | 22 | 1014.5 |
| 20260507011142 | 27 | 30 | 0.0 | 4.8 | 0.00 | 0.00 | 0.00 | 22 | 1014.3 |
| 20260507010637 | 27 | 70 | 3.2 | 4.8 | 0.00 | 0.00 | 0.00 | 22 | 1014.2 |
| 20260507010133 | 27 | 115 | 1.6 | 4.8 | 0.00 | 0.00 | 0.00 | 22 | 1014.2 |
| 20260507005631 | 27 | 105 | 8.0 | 11.3 | 0.00 | 0.00 | 0.00 | 22 | 1014.4 |
| 20260507005127 | 27 | 94 | 0.0 | 1.6 | 0.00 | 0.00 | 0.00 | 22 | 1014.3 |
| 20260507004624 | 27 | 103 | 4.8 | 6.4 | 0.00 | 0.00 | 0.00 | 22 | 1014.2 |
| 20260507004122 | 27 | 96 | 1.6 | 3.2 | 0.00 | 0.00 | 0.00 | 21 | 1014.2 |
| 20260507003618 | 27 | 58 | 1.6 | 1.6 | 0.00 | 0.00 | 0.00 | 21 | 1014.3 |
| 20260507003113 | 27 | 85 | 1.6 | 6.4 | 0.00 | 0.00 | 0.00 | 21 | 1014.3 |
| 20260507002610 | 27 | 48 | 0.0 | 3.2 | 0.00 | 0.00 | 0.00 | 22 | 1014.2 |
| 20260507002105 | 28 | 22 | 3.2 | 4.8 | 0.00 | 0.00 | 0.00 | 21 | 1014.3 |
| 20260507001602 | 27 | 94 | 1.6 | 3.2 | 0.00 | 0.00 | 0.00 | 22 | 1014.2 |
| 20260507001100 | 27 | 105 | 1.6 | 6.4 | 0.00 | 0.00 | 0.00 | 21 | 1014.3 |
| 20260507000556 | 27 | 91 | 6.4 | 14.5 | 0.00 | 0.00 | 0.00 | 21 | 1014.3 |
| 20260507000051 | 28 | 121 | 9.7 | 11.3 | 0.00 | 0.00 | 0.00 | 21 | 1014.2 |
| 20260506235549 | 28 | 92 | 6.4 | 9.7 | 0.00 | 0.00 | 0.00 | 21 | 1014.1 |
| 20260506235044 | 27 | 78 | 0.0 | 3.2 | 0.00 | 0.00 | 0.00 | 22 | 1014.2 |
| 20260506234542 | 27 | 2 | 4.8 | 6.4 | 0.00 | 0.00 | 0.00 | 22 | 1014.2 |
| 20260506234039 | 27 | 23 | 1.6 | 4.8 | 0.00 | 0.00 | 0.00 | 22 | 1014.5 |
| 20260506233536 | 27 | 95 | 9.7 | 11.3 | 0.00 | 0.00 | 0.00 | 23 | 1014.3 |
| 20260506233033 | 27 | 84 | 4.8 | 12.9 | 0.00 | 0.00 | 0.00 | 21 | 1014.4 |
| 20260506232529 | 27 | 138 | 1.6 | 9.7 | 0.00 | 0.00 | 0.00 | 23 | 1014.5 |
| 20260506232024 | 27 | 116 | 9.7 | 14.5 | 0.00 | 0.00 | 0.00 | 22 | 1014.3 |
| 20260506231522 | 27 | 129 | 6.4 | 6.4 | 0.00 | 0.00 | 0.00 | 22 | 1014.5 |
| 20260506231020 | 27 | 119 | 8.0 | 16.1 | 0.00 | 0.00 | 0.00 | 22 | 1014.5 |
| 20260506230516 | 28 | 111 | 12.9 | 16.1 | 0.00 | 0.00 | 0.00 | 21 | 1014.5 |
| 20260506230014 | 27 | 125 | 8.0 | 11.3 | 0.00 | 0.00 | 0.00 | 22 | 1014.7 |
| 20260506225510 | 27 | 86 | 4.8 | 6.4 | 0.00 | 0.00 | 0.00 | 22 | 1014.7 |
| 20260506225007 | 27 | 88 | 4.8 | 9.7 | 0.00 | 0.00 | 0.00 | 22 | 1014.7 |
| 20260506224504 | 28 | 99 | 3.2 | 3.2 | 0.00 | 0.00 | 0.00 | 22 | 1014.8 |
| 20260506224000 | 27 | 130 | 1.6 | 3.2 | 0.00 | 0.00 | 0.00 | 23 | 1014.7 |
| 20260506223456 | 27 | 187 | 1.6 | 3.2 | 0.00 | 0.00 | 0.00 | 23 | 1014.9 |
| 20260506222953 | 27 | 112 | 9.7 | 12.9 | 0.00 | 0.00 | 0.00 | 22 | 1014.9 |
| 20260506222450 | 26 | 140 | 6.4 | 12.9 | 0.00 | 0.00 | 0.00 | 23 | 1015.0 |
| 20260506221946 | 27 | 121 | 3.2 | 3.2 | 0.00 | 0.00 | 0.00 | 22 | 1015.0 |
| 20260506221444 | 26 | 24 | 1.6 | 3.2 | 0.00 | 0.00 | 0.00 | 24 | 1015.3 |
| 20260506220942 | 26 | 65 | 0.0 | 6.4 | 0.00 | 0.00 | 0.00 | 25 | 1015.1 |
| 20260506220437 | 27 | 100 | 3.2 | 4.8 | 0.00 | 0.00 | 0.00 | 22 | 1015.4 |
| 20260506215933 | 26 | 73 | 1.6 | 4.8 | 0.00 | 0.00 | 0.00 | 22 | 1015.3 |
| 20260506215430 | 27 | 80 | 3.2 | 12.9 | 0.00 | 0.00 | 0.00 | 23 | 1015.6 |
| 20260506214926 | 26 | 123 | 6.4 | 9.7 | 0.00 | 0.00 | 0.00 | 23 | 1015.4 |
| 20260506214423 | 26 | 129 | 6.4 | 6.4 | 0.00 | 0.00 | 0.00 | 22 | 1015.6 |
| 20260506213920 | 26 | 131 | 11.3 | 14.5 | 0.00 | 0.00 | 0.00 | 22 | 1015.7 |
| 20260506213413 | 26 | 117 | 6.4 | 9.7 | 0.00 | 0.00 | 0.00 | 24 | 1015.6 |
| 20260506212910 | 26 | 86 | 4.8 | 6.4 | 0.00 | 0.00 | 0.00 | 22 | 1015.8 |
| 20260506212406 | 26 | 337 | 8.0 | 9.7 | 0.00 | 0.00 | 0.00 | 24 | 1016.0 |
| 20260506211900 | 26 | 336 | 4.8 | 4.8 | 0.00 | 0.00 | 0.00 | 25 | 1016.0 |
| 20260506211357 | 26 | 116 | 8.0 | 11.3 | 0.00 | 0.00 | 0.00 | 22 | 1016.0 |
| 20260506210854 | 26 | 109 | 4.8 | 4.8 | 0.00 | 0.00 | 0.00 | 23 | 1016.1 |
| 20260506210350 | 26 | 133 | 8.0 | 11.3 | 0.00 | 0.00 | 0.00 | 23 | 1016.2 |
| 20260506205842 | 26 | 120 | 9.7 | 12.9 | 0.00 | 0.00 | 0.00 | 23 | 1016.4 |
| 20260506205338 | 25 | 140 | 0.0 | 1.6 | 0.00 | 0.00 | 0.00 | 24 | 1016.1 |
| 20260506204834 | 26 | 59 | 3.2 | 6.4 | 0.00 | 0.00 | 0.00 | 24 | 1016.6 |
| 20260506204332 | 26 | 108 | 3.2 | 6.4 | 0.00 | 0.00 | 0.00 | 24 | 1016.5 |
| 20260506203830 | 26 | 352 | 4.8 | 6.4 | 0.00 | 0.00 | 0.00 | 25 | 1016.5 |
| 20260506203327 | 26 | 114 | 6.4 | 6.4 | 0.00 | 0.00 | 0.00 | 25 | 1016.7 |
| 20260506202823 | 26 | 127 | 3.2 | 6.4 | 0.00 | 0.00 | 0.00 | 24 | 1016.7 |
| 20260506202320 | 26 | 122 | 8.0 | 9.7 | 0.00 | 0.00 | 0.00 | 25 | 1016.7 |
| 20260506201811 | 25 | 190 | 0.0 | 3.2 | 0.00 | 0.00 | 0.00 | 27 | 1016.8 |
| 20260506201309 | 25 | 76 | 1.6 | 1.6 | 0.00 | 0.00 | 0.00 | 25 | 1016.7 |
| 20260506200806 | 25 | 327 | 3.2 | 9.7 | 0.00 | 0.00 | 0.00 | 25 | 1016.6 |
| 20260506200301 | 25 | 14 | 3.2 | 6.4 | 0.00 | 0.00 | 0.00 | 27 | 1016.8 |
| 20260506195758 | 25 | 106 | 3.2 | 4.8 | 0.00 | 0.00 | 0.00 | 26 | 1017.1 |
| 20260506195255 | 25 | 51 | 3.2 | 17.7 | 0.00 | 0.00 | 0.00 | 26 | 1016.9 |
| 20260506194752 | 25 | 161 | 8.0 | 11.3 | 0.00 | 0.00 | 0.00 | 26 | 1017.0 |
| 20260506194248 | 25 | 87 | 3.2 | 11.3 | 0.00 | 0.00 | 0.00 | 26 | 1016.9 |
| 20260506193746 | 25 | 359 | 6.4 | 9.7 | 0.00 | 0.00 | 0.00 | 26 | 1017.0 |
| 20260506193243 | 24 | 174 | 4.8 | 6.4 | 0.00 | 0.00 | 0.00 | 27 | 1017.1 |
| 20260506192739 | 23 | 149 | 9.7 | 11.3 | 0.00 | 0.00 | 0.00 | 27 | 1017.2 |
| 20260506192236 | 25 | 132 | 12.9 | 16.1 | 0.00 | 0.00 | 0.00 | 27 | 1016.9 |
| 20260506191733 | 24 | 65 | 0.0 | 11.3 | 0.00 | 0.00 | 0.00 | 26 | 1017.4 |
| 20260506191229 | 24 | 133 | 6.4 | 9.7 | 0.00 | 0.00 | 0.00 | 28 | 1017.4 |
| 20260506190726 | 23 | 116 | 6.4 | 11.3 | 0.00 | 0.00 | 0.00 | 27 | 1017.4 |
| 20260506190223 | 24 | 127 | 3.2 | 6.4 | 0.00 | 0.00 | 0.00 | 29 | 1017.3 |
| 20260506185720 | 23 | 17 | 0.0 | 1.6 | 0.00 | 0.00 | 0.00 | 30 | 1017.5 |
| 20260506185216 | 23 | 95 | 3.2 | 6.4 | 0.00 | 0.00 | 0.00 | 30 | 1017.7 |
| 20260506184714 | 24 | 33 | 3.2 | 6.4 | 0.00 | 0.00 | 0.00 | 28 | 1017.7 |
| 20260506184211 | 23 | 321 | 4.8 | 9.7 | 0.00 | 0.00 | 0.00 | 29 | 1017.8 |
| 20260506183708 | 23 | 3 | 3.2 | 4.8 | 0.00 | 0.00 | 0.00 | 28 | 1017.8 |
| 20260506183203 | 23 | 65 | 1.6 | 6.4 | 0.00 | 0.00 | 0.00 | 27 | 1018.0 |
| 20260506182701 | 23 | 110 | 4.8 | 4.8 | 0.00 | 0.00 | 0.00 | 30 | 1018.1 |
| 20260506182158 | 22 | 127 | 6.4 | 12.9 | 0.00 | 0.00 | 0.00 | 29 | 1018.0 |
| 20260506181656 | 23 | 131 | 6.4 | 12.9 | 0.00 | 0.00 | 0.00 | 29 | 1018.1 |
| 20260506181153 | 22 | 18 | 0.0 | 4.8 | 0.00 | 0.00 | 0.00 | 30 | 1018.2 |
| 20260506180650 | 23 | 88 | 8.0 | 14.5 | 0.00 | 0.00 | 0.00 | 30 | 1018.3 |
| 20260506180146 | 23 | 65 | 0.0 | 4.8 | 0.00 | 0.00 | 0.00 | 32 | 1018.3 |
| 20260506175642 | 22 | 14 | 0.0 | 3.2 | 0.00 | 0.00 | 0.00 | 31 | 1018.2 |
| 20260506175139 | 22 | 123 | 3.2 | 12.9 | 0.00 | 0.00 | 0.00 | 31 | 1018.2 |
| 20260506174632 | 22 | 108 | 3.2 | 4.8 | 0.00 | 0.00 | 0.00 | 32 | 1018.3 |
| 20260506174128 | 22 | 109 | 0.0 | 6.4 | 0.00 | 0.00 | 0.00 | 31 | 1018.4 |
| 20260506173626 | 22 | 91 | 4.8 | 9.7 | 0.00 | 0.00 | 0.00 | 30 | 1018.2 |
| 20260506173122 | 22 | 280 | 0.0 | 4.8 | 0.00 | 0.00 | 0.00 | 33 | 1018.4 |
| 20260506172620 | 22 | 183 | 4.8 | 9.7 | 0.00 | 0.00 | 0.00 | 33 | 1018.1 |